| time (UTC) | temp F | wind direction | speed knots | gust knots | rain 1hr in | rain 24hr in | rain mn in | humidity % | barometer mb |
| 20260504210306 | 73 | 251 | 8.7 | 19.1 | 0.00 | 0.24 | 0.01 | 32 | 990.7 |
| 20260504205808 | 73 | 244 | 9.6 | 26.9 | 0.00 | 0.24 | 0.01 | 32 | 990.7 |
| 20260504205305 | 74 | 247 | 11.3 | 33.0 | 0.00 | 0.24 | 0.01 | 32 | 990.6 |
| 20260504204804 | 74 | 282 | 13.9 | 33.0 | 0.00 | 0.24 | 0.01 | 31 | 990.5 |
| 20260504204533 | 74 | 254 | 9.6 | 23.5 | 0.00 | 0.24 | 0.01 | 30 | 990.7 |
| 20260504203804 | 74 | 275 | 13.0 | 20.9 | 0.00 | 0.24 | 0.01 | 29 | 990.5 |
| 20260504203307 | 75 | 279 | 12.2 | 24.3 | 0.00 | 0.24 | 0.01 | 29 | 990.4 |
| 20260504202802 | 75 | 268 | 11.3 | 24.3 | 0.00 | 0.24 | 0.01 | 29 | 990.5 |
| 20260504201803 | 75 | 262 | 11.3 | 24.3 | 0.00 | 0.24 | 0.01 | 28 | 990.5 |
| 20260504201302 | 76 | 268 | 13.0 | 24.3 | 0.00 | 0.24 | 0.01 | 27 | 990.5 |
| 20260504200802 | 76 | 272 | 13.0 | 23.5 | 0.00 | 0.24 | 0.01 | 27 | 990.5 |
| 20260504200303 | 76 | 234 | 11.3 | 23.5 | 0.00 | 0.24 | 0.01 | 26 | 990.5 |
| 20260504195802 | 77 | 272 | 13.9 | 23.5 | 0.00 | 0.24 | 0.01 | 26 | 990.5 |
| 20260504195526 | 77 | 272 | 11.3 | 20.9 | 0.00 | 0.24 | 0.01 | 26 | 990.5 |
| 20260504194808 | 77 | 241 | 11.3 | 23.5 | 0.00 | 0.24 | 0.01 | 27 | 990.4 |
| 20260504194304 | 77 | 199 | 9.6 | 30.4 | 0.00 | 0.24 | 0.01 | 27 | 990.5 |
| 20260504193802 | 77 | 252 | 13.0 | 30.4 | 0.00 | 0.24 | 0.01 | 26 | 990.5 |
| 20260504193305 | 78 | 228 | 13.0 | 29.5 | 0.00 | 0.24 | 0.01 | 26 | 990.6 |
| 20260504193028 | 77 | 275 | 15.6 | 29.5 | 0.00 | 0.24 | 0.01 | 25 | 990.5 |
| 20260504192300 | 77 | 221 | 14.8 | 26.9 | 0.00 | 0.24 | 0.01 | 25 | 990.7 |
| 20260504191757 | 77 | 258 | 13.9 | 25.2 | 0.00 | 0.24 | 0.01 | 24 | 990.8 |
| 20260504191258 | 78 | 238 | 13.0 | 23.5 | 0.00 | 0.24 | 0.01 | 25 | 990.5 |
| 20260504190826 | 78 | 220 | 7.0 | 17.4 | 0.00 | 0.24 | 0.01 | 27 | 990.8 |
| 20260504190818 | 78 | 272 | 11.3 | 19.1 | 0.00 | 0.24 | 0.01 | 26 | 990.8 |
| 20260504185730 | 77 | 261 | 11.3 | 19.1 | 0.00 | 0.24 | 0.01 | 27 | 990.8 |
| 20260504185502 | 76 | 257 | 7.8 | 26.9 | 0.00 | 0.24 | 0.01 | 28 | 991.1 |
| 20260504184726 | 76 | 207 | 14.8 | 26.9 | 0.00 | 0.24 | 0.01 | 27 | 991.2 |
| 20260504183723 | 76 | 237 | 11.3 | 25.2 | 0.00 | 0.24 | 0.01 | 28 | 991.3 |
| 20260504183225 | 76 | 257 | 16.5 | 24.3 | 0.00 | 0.24 | 0.01 | 28 | 991.4 |
| 20260504182718 | 76 | 276 | 13.0 | 25.2 | 0.00 | 0.24 | 0.01 | 28 | 991.6 |
| 20260504182219 | 76 | 234 | 13.0 | 25.2 | 0.00 | 0.24 | 0.01 | 27 | 991.6 |
| 20260504181716 | 76 | 231 | 13.0 | 25.2 | 0.00 | 0.24 | 0.01 | 27 | 991.5 |
| 20260504181230 | 76 | 282 | 10.4 | 26.1 | 0.00 | 0.24 | 0.01 | 28 | 991.6 |
| 20260504180711 | 76 | 248 | 9.6 | 26.1 | 0.00 | 0.24 | 0.01 | 30 | 991.5 |
| 20260504180217 | 74 | 250 | 9.6 | 20.9 | 0.00 | 0.24 | 0.01 | 30 | 991.8 |
| 20260504175559 | 74 | 233 | 10.4 | 23.5 | 0.00 | 0.24 | 0.01 | 30 | 991.7 |
| 20260504175100 | 74 | 255 | 13.9 | 26.9 | 0.00 | 0.24 | 0.01 | 29 | 991.9 |
| 20260504174933 | 74 | 244 | 13.9 | 26.9 | 0.00 | 0.24 | 0.01 | 29 | 992.2 |
| 20260504174057 | 74 | 240 | 10.4 | 24.3 | 0.00 | 0.24 | 0.01 | 30 | 992.4 |
| 20260504173830 | 74 | 219 | 13.0 | 24.3 | 0.00 | 0.24 | 0.01 | 29 | 992.2 |
| 20260504173058 | 74 | 245 | 13.0 | 24.3 | 0.00 | 0.24 | 0.01 | 28 | 992.2 |
| 20260504172557 | 74 | 258 | 12.2 | 26.1 | 0.00 | 0.24 | 0.01 | 30 | 992.4 |
| 20260504172057 | 74 | 264 | 17.4 | 26.1 | 0.00 | 0.24 | 0.01 | 30 | 992.6 |
| 20260504171557 | 74 | 275 | 10.4 | 16.5 | 0.00 | 0.24 | 0.01 | 32 | 992.6 |
| 20260504171058 | 0 | 240 | 11.3 | 0.0 | 0.00 | 0.00 | 0.00 | 992.6 | |
| 20260504160304 | 70 | 265 | 7.8 | 17.4 | 0.00 | 0.25 | 0.01 | 41 | 994.0 |
| 20260504150801 | 64 | 221 | 9.6 | 13.9 | 0.00 | 0.25 | 0.01 | 57 | 995.0 |
| 20260504150304 | 63 | 221 | 7.8 | 12.2 | 0.00 | 0.25 | 0.01 | 60 | 995.2 |
| 20260504141249 | 60 | 220 | 5.2 | 11.3 | 0.00 | 0.25 | 0.01 | 63 | 995.7 |
| 20260504140750 | 60 | 223 | 7.0 | 11.3 | 0.00 | 0.25 | 0.01 | 66 | 995.8 |
| 20260504140249 | 59 | 171 | 2.6 | 11.3 | 0.00 | 0.25 | 0.01 | 67 | 995.9 |
| 20260504130734 | 53 | 231 | 4.3 | 9.6 | 0.00 | 0.25 | 0.01 | 82 | 996.8 |
| 20260504130237 | 52 | 226 | 6.1 | 9.6 | 0.00 | 0.25 | 0.01 | 84 | 996.8 |
| 20260504120238 | 47 | 258 | 4.3 | 9.6 | 0.00 | 0.25 | 0.01 | 93 | 997.3 |
| 20260504110639 | 43 | 213 | 4.3 | 8.7 | 0.00 | 0.25 | 0.01 | 95 | 997.6 |
| 20260504110141 | 43 | 210 | 5.2 | 8.7 | 0.00 | 0.25 | 0.01 | 95 | 997.6 |
| 20260504100135 | 43 | 230 | 3.5 | 6.1 | 0.00 | 0.25 | 0.01 | 95 | 998.4 |
| 20260504081454 | 44 | 228 | 3.5 | 6.1 | 0.01 | 0.24 | 0.01 | 96 | 999.3 |
| 20260504080955 | 44 | 264 | 3.5 | 7.8 | 0.01 | 0.24 | 0.01 | 96 | 999.2 |
| 20260504080453 | 43 | 247 | 3.5 | 7.8 | 0.00 | 0.24 | 0.00 | 96 | 999.5 |
| 20260504050436 | 41 | 224 | 0.0 | 0.9 | 0.00 | 0.24 | 0.00 | 96 | 1000.6 |
| 20260504045935 | 41 | 261 | 0.0 | 0.0 | 0.00 | 0.24 | 0.00 | 96 | 1000.6 |
| 20260504045708 | 41 | 262 | 0.0 | 0.0 | 0.00 | 0.24 | 0.00 | 96 | 1000.7 |
| 20260504044935 | 41 | 276 | 0.0 | 0.0 | 0.00 | 0.24 | 0.00 | 96 | 1000.7 |
| 20260504044435 | 41 | 275 | 0.0 | 0.0 | 0.00 | 0.24 | 0.00 | 96 | 1000.8 |
| 20260504043934 | 41 | 276 | 0.0 | 0.0 | 0.00 | 0.24 | 0.00 | 96 | 1000.8 |
| 20260504043201 | 41 | 329 | 0.0 | 0.9 | 0.00 | 0.24 | 0.00 | 96 | 1000.9 |
| 20260504042434 | 41 | 19 | 0.0 | 3.5 | 0.00 | 0.24 | 0.00 | 96 | 1001.0 |
| 20260504041935 | 41 | 24 | 0.9 | 3.5 | 0.00 | 0.24 | 0.00 | 96 | 1001.0 |
| 20260504041437 | 41 | 326 | 0.9 | 1.7 | 0.00 | 0.24 | 0.00 | 96 | 1000.9 |
| 20260504040933 | 41 | 252 | 0.0 | 0.0 | 0.00 | 0.24 | 0.00 | 96 | 1000.8 |
| 20260504040433 | 42 | 252 | 0.0 | 0.0 | 0.00 | 0.24 | 0.00 | 96 | 1000.9 |
| 20260504040208 | 42 | 290 | 0.0 | 0.9 | 0.00 | 0.24 | 0.24 | 96 | 1001.0 |
| 20260504035434 | 42 | 305 | 0.0 | 0.9 | 0.00 | 0.24 | 0.24 | 96 | 1001.1 |
| 20260504034935 | 43 | 28 | 0.0 | 0.0 | 0.00 | 0.24 | 0.24 | 96 | 1001.2 |
| 20260504034433 | 43 | 341 | 0.0 | 0.0 | 0.00 | 0.24 | 0.24 | 96 | 1001.2 |
| 20260504033933 | 43 | 272 | 0.0 | 1.7 | 0.00 | 0.24 | 0.24 | 96 | 1001.1 |
| 20260504033659 | 43 | 271 | 0.0 | 2.6 | 0.00 | 0.24 | 0.24 | 96 | 1001.2 |
| 20260504032931 | 43 | 275 | 0.9 | 2.6 | 0.00 | 0.24 | 0.24 | 96 | 1001.2 |
| 20260504032432 | 43 | 268 | 0.0 | 1.7 | 0.00 | 0.24 | 0.24 | 96 | 1001.4 |
| 20260504031934 | 43 | 245 | 0.0 | 0.9 | 0.00 | 0.24 | 0.24 | 96 | 1001.2 |
| 20260504031432 | 43 | 237 | 0.0 | 1.7 | 0.00 | 0.24 | 0.24 | 96 | 1001.2 |
| 20260504030932 | 43 | 237 | 0.9 | 1.7 | 0.00 | 0.24 | 0.24 | 96 | 1001.3 |
| 20260504030434 | 43 | 236 | 0.0 | 1.7 | 0.00 | 0.24 | 0.24 | 96 | 1001.3 |
| 20260504025932 | 43 | 149 | 0.0 | 2.6 | 0.00 | 0.24 | 0.24 | 96 | 1001.2 |
| 20260504025432 | 43 | 154 | 0.9 | 2.6 | 0.00 | 0.24 | 0.24 | 96 | 1001.2 |
| 20260504025212 | 43 | 151 | 0.9 | 2.6 | 0.00 | 0.24 | 0.24 | 96 | 1001.3 |
| 20260504024431 | 43 | 165 | 0.9 | 2.6 | 0.00 | 0.24 | 0.24 | 96 | 1001.3 |
| 20260504023931 | 43 | 173 | 1.7 | 2.6 | 0.00 | 0.24 | 0.24 | 96 | 1001.3 |
| 20260504023431 | 43 | 161 | 0.9 | 2.6 | 0.00 | 0.24 | 0.24 | 96 | 1001.3 |
| 20260504022931 | 43 | 145 | 1.7 | 2.6 | 0.00 | 0.24 | 0.24 | 96 | 1001.3 |
| 20260504022659 | 42 | 175 | 0.0 | 0.9 | 0.00 | 0.24 | 0.24 | 96 | 1001.4 |
| 20260504022215 | 42 | 190 | 0.0 | 1.7 | 0.00 | 0.24 | 0.24 | 96 | 1001.4 |
| 20260504021431 | 42 | 190 | 0.0 | 1.7 | 0.00 | 0.24 | 0.24 | 96 | 1001.4 |
| 20260504020931 | 42 | 166 | 0.0 | 2.6 | 0.00 | 0.24 | 0.24 | 95 | 1001.4 |
| 20260504020430 | 42 | 142 | 0.9 | 2.6 | 0.00 | 0.24 | 0.24 | 95 | 1001.4 |
| 20260504015428 | 42 | 183 | 0.9 | 2.6 | 0.00 | 0.24 | 0.24 | 95 | 1001.5 |
| 20260504014926 | 42 | 86 | 0.0 | 2.6 | 0.00 | 0.24 | 0.24 | 95 | 1001.6 |
| 20260504014651 | 42 | 80 | 0.9 | 2.6 | 0.00 | 0.24 | 0.24 | 95 | 1001.7 |
| 20260504013926 | 43 | 89 | 1.7 | 2.6 | 0.00 | 0.24 | 0.24 | 95 | 1001.8 |
| 20260504013423 | 43 | 61 | 1.7 | 1.7 | 0.01 | 0.24 | 0.24 | 95 | 1001.7 |
| 20260504013151 | 43 | 104 | 0.9 | 3.5 | 0.01 | 0.24 | 0.24 | 95 | 1001.5 |
| 20260504012649 | 42 | 172 | 1.7 | 3.5 | 0.03 | 0.24 | 0.24 | 95 | 1001.4 |
| 20260504011923 | 42 | 186 | 1.7 | 4.3 | 0.05 | 0.24 | 0.24 | 95 | 1001.5 |
| 20260504011421 | 42 | 186 | 2.6 | 4.3 | 0.06 | 0.24 | 0.24 | 95 | 1001.5 |
| 20260504010921 | 42 | 151 | 1.7 | 2.6 | 0.09 | 0.24 | 0.24 | 95 | 1001.5 |
| 20260504010645 | 42 | 155 | 0.9 | 2.6 | 0.10 | 0.24 | 0.24 | 94 | 1001.7 |
| 20260504005919 | 42 | 162 | 0.9 | 2.6 | 0.11 | 0.13 | 0.24 | 94 | 1001.8 |
| 20260504005653 | 42 | 158 | 0.9 | 3.5 | 0.13 | 0.13 | 0.24 | 94 | 1001.7 |
| 20260504004929 | 42 | 83 | 1.7 | 3.5 | 0.16 | 0.13 | 0.24 | 94 | 1001.7 |
| 20260504004416 | 42 | 124 | 1.7 | 2.6 | 0.19 | 0.13 | 0.24 | 94 | 1001.8 |
| 20260504003910 | 42 | 182 | 0.9 | 2.6 | 0.23 | 0.13 | 0.24 | 93 | 1001.8 |
| 20260504003410 | 42 | 155 | 0.9 | 1.7 | 0.22 | 0.13 | 0.23 | 93 | 1002.1 |
| 20260504002908 | 42 | 178 | 0.9 | 1.7 | 0.22 | 0.13 | 0.22 | 93 | 1002.1 |
| 20260504002406 | 42 | 138 | 0.0 | 3.5 | 0.20 | 0.13 | 0.21 | 92 | 1002.3 |
| 20260504001920 | 42 | 310 | 1.7 | 3.5 | 0.18 | 0.13 | 0.19 | 91 | 1002.5 |
| 20260504001408 | 42 | 281 | 1.7 | 5.2 | 0.16 | 0.13 | 0.17 | 91 | 1002.4 |
| 20260504000904 | 42 | 334 | 1.7 | 9.6 | 0.14 | 0.13 | 0.15 | 90 | 1002.6 |
| 20260504000404 | 43 | 25 | 1.7 | 9.6 | 0.13 | 0.13 | 0.13 | 88 | 1002.6 |
| 20260503235904 | 44 | 25 | 2.6 | 10.4 | 0.12 | 0.01 | 0.12 | 87 | 1002.5 |
| 20260503235404 | 46 | 323 | 1.7 | 13.9 | 0.10 | 0.01 | 0.10 | 87 | 1002.3 |
| 20260503234913 | 47 | 2 | 4.3 | 13.9 | 0.07 | 0.01 | 0.08 | 85 | 1002.2 |
| 20260503234358 | 49 | 289 | 7.8 | 12.2 | 0.03 | 0.01 | 0.03 | 80 | 1002.1 |
| 20260503233858 | 52 | 344 | 3.5 | 12.2 | 0.00 | 0.01 | 0.01 | 71 | 1001.8 |
| 20260503233621 | 58 | 11 | 6.1 | 12.2 | 0.00 | 0.01 | 0.01 | 64 | 1001.1 |
| 20260503232352 | 59 | 259 | 3.5 | 10.4 | 0.00 | 0.01 | 0.01 | 62 | 1000.3 |
| 20260503231856 | 59 | 271 | 2.6 | 10.4 | 0.00 | 0.01 | 0.01 | 62 | 1000.3 |
| 20260503231351 | 59 | 250 | 4.3 | 6.1 | 0.00 | 0.01 | 0.01 | 62 | 1000.1 |
| 20260503230852 | 59 | 274 | 2.6 | 7.8 | 0.00 | 0.01 | 0.01 | 62 | 1000.2 |
| 20260503230352 | 59 | 250 | 3.5 | 7.8 | 0.00 | 0.01 | 0.01 | 62 | 1000.2 |
| 20260503225852 | 59 | 238 | 3.5 | 6.1 | 0.00 | 0.01 | 0.01 | 62 | 1000.2 |
| 20260503225352 | 59 | 240 | 0.9 | 7.8 | 0.00 | 0.01 | 0.01 | 63 | 1000.3 |
| 20260503224847 | 59 | 245 | 4.3 | 10.4 | 0.00 | 0.01 | 0.01 | 62 | 1000.5 |
| 20260503224347 | 59 | 262 | 5.2 | 11.3 | 0.00 | 0.01 | 0.01 | 63 | 1000.6 |
| 20260503223847 | 59 | 213 | 5.2 | 11.3 | 0.00 | 0.01 | 0.01 | 62 | 1000.6 |
| 20260503223347 | 59 | 281 | 4.3 | 10.4 | 0.00 | 0.01 | 0.01 | 63 | 1000.6 |
| 20260503222846 | 59 | 262 | 5.2 | 11.3 | 0.00 | 0.01 | 0.01 | 62 | 1000.7 |
| 20260503222616 | 59 | 288 | 6.1 | 14.8 | 0.00 | 0.01 | 0.01 | 63 | 1000.8 |
| 20260503222117 | 59 | 268 | 9.6 | 14.8 | 0.00 | 0.01 | 0.01 | 62 | 1000.8 |
| 20260503221345 | 59 | 245 | 7.8 | 11.3 | 0.00 | 0.01 | 0.01 | 63 | 1000.9 |
| 20260503220839 | 59 | 237 | 5.2 | 13.9 | 0.00 | 0.01 | 0.01 | 63 | 1000.9 |
| 20260503220337 | 59 | 226 | 7.8 | 16.5 | 0.00 | 0.01 | 0.01 | 64 | 1000.9 |
| 20260503215833 | 58 | 238 | 8.7 | 16.5 | 0.00 | 0.01 | 0.01 | 64 | 1001.0 |
| 20260503215332 | 58 | 227 | 7.8 | 14.8 | 0.00 | 0.01 | 0.01 | 63 | 1001.0 |
| 20260503215101 | 58 | 261 | 7.8 | 15.6 | 0.00 | 0.01 | 0.01 | 63 | 1001.1 |
| 20260503214332 | 59 | 264 | 9.6 | 15.6 | 0.00 | 0.01 | 0.01 | 62 | 1001.1 |
| 20260503213834 | 59 | 231 | 9.6 | 15.6 | 0.00 | 0.01 | 0.01 | 64 | 1001.1 |
| 20260503213325 | 58 | 220 | 7.0 | 14.8 | 0.00 | 0.01 | 0.01 | 64 | 1001.0 |
| 20260503212823 | 58 | 219 | 5.2 | 15.6 | 0.00 | 0.01 | 0.01 | 63 | 1001.1 |
| 20260503212332 | 58 | 251 | 9.6 | 15.6 | 0.00 | 0.01 | 0.01 | 64 | 1001.3 |
| 20260503210824 | 47 | 340 | 0.0 | 6.1 | 0.00 | 0.01 | 0.01 | 84 | 1001.3 |